Location: Arran
(51.9410°N, 101.7372°W)
Time: 00:26:51
(UTC+00:00)

BlueWalker 3 - Pass Details

Date: 03 December 2022
Orbit: 498 x 517 km, 53.2° (Epoch: 08 February)

Event Time Altitude Azimuth Distance (km) Brightness Sun altitude
Rises 01:29:29 0° 282° (WNW) 2,629 6.8 -25.3°
Reaches altitude 10° 01:31:42 10° 283° (WNW) 1,738 5.6 -25.6°
Enters shadow 01:34:29 44° 288° (WNW) 713 3.0 -26.0°
